Preview of NWS' New Version of Forecast
This preview is not operational and should not be used for support decisions.

Regional Weather Roundup (RWR)

Issued by National Weather Service (NWS)

                            
000
ASUS42 KTBW 180218
RWRFL 
FLORIDA REGIONAL WEATHER ROUNDUP
NATIONAL WEATHER SERVICE TAMPA BAY RUSKIN FL
1000 PM EDT WED JUL 17 2019

NOTE: "FAIR" INDICATES FEW OR NO CLOUDS BELOW 12,000 FEET WITH NO
SIGNIFICANT WEATHER AND/OR OBSTRUCTIONS TO VISIBILITY.

FLZ001>010-012>015-112-114-115-180300-
PANHANDLE FLORIDA
  
CITY           SKY/WX    TMP DP  RH WIND       PRES   REMARKS
PENSACOLA      FAIR      84  78  82 SW8       30.06S HX  95           
PENSACOLA NAS  FAIR      82  77  84 SW3       30.06S                  
MILTON NAS     FAIR      83  75  77 SW8       30.06S                  
CRESTVIEW      FAIR      85  73  67 SW7       30.07S                  
DUKE FIELD     FAIR      84  74  71 SW6       30.06S                  
VALPARAISO     FAIR      85  75  71 SW5       30.06R                  
MARY ESTHER    PTCLDY    85  76  73 CALM      30.05  HX  95           
TRI COUNTY     FAIR      82  78  88 S3        30.07S                  
PANAMA CITY    FAIR      82  75  79 S3        30.06R                  
TYNDALL AFB    FAIR      84  77  80 W5        30.06S                  
APALACHICOLA   FAIR      82  76  81 CALM      30.07S                  

STATION/POSITION SKY/WX   TEMP    WIND        PRES    WAVE   SWELL
                          AIR SEA DIR/SP/G            HT/PER HT/PER
                          (F)     (DEG/KT/KT) (MB)    (FT/S) (FT/S)
30.1N   87.6W              85 87  210/  8/ 10 1018.2F   1/ 6   2/ 6
29.2N   88.2W              85 85  140/  4/  6 1018.5
28.8N   86.0W              86 86  180/  2/  2 1018.8R   1/ 7   2/ 7
PANAMA CITY BEAC           85 89  250/ 10/ 11 1018.5R
TOWER C                    85     240/  3/  4 1019.0S
28.5N   84.5W              86      40/  2/  4 1019.9R

$$
FLZ011-016>038-118-127-128-134-139-239-180300-
NORTH FLORIDA
  
CITY           SKY/WX    TMP DP  RH WIND       PRES   REMARKS
MARIANNA       FAIR      83  76  79 S6        30.06R                  
TALLAHASSEE    MOCLDY    83  79  88 CALM      30.07F                  
PERRY          FAIR      75  74  97 CALM      30.10S                  
LIVE OAK       PTCLDY    75  75 100 CALM      30.08F                  
CROSS CITY     FAIR      74  73  96 CALM      30.11S                  
LAKE CITY      FAIR      72  70  94 CALM      30.10F                  
GAINESVILLE    FAIR      71  32  23 MISG      30.15R                  
WILLISTON        N/A    N/A N/A N/A MISG        N/A                   
PALATKA        MOCLDY    75  73  94 SW3       30.12S                  
MAYPORT NAS    MOCLDY    78  72  81 S3        30.09F                  
JACKSONVILLE   MOCLDY    75  72  90 W3        30.09S                  
JAX NAS        MOCLDY    79  69  71 SW3       30.10F                  
JAX CECIL      CLEAR     75  72  88 VRB5      30.10S                  
FERNANDINA BEA FAIR      77  73  88 W6        30.09S                  
ST AUGUSTINE   FAIR      79  73  82 MISG      30.11S                  
PALM COAST     FAIR      77  73  88 CALM      30.10S                  

STATION/POSITION SKY/WX   TEMP    WIND        PRES    WAVE   SWELL
                          AIR SEA DIR/SP/G            HT/PER HT/PER
                          (F)     (DEG/KT/KT) (MB)    (FT/S) (FT/S)
SHELL POINT      NOT AVBL
KEATON BEACH               75     120/  5/  6 1019.1S
CEDAR KEY                  81     110/  5/  7 1019.6S
FERNANDINA                 82 85  260/  6/  9 1019.9R
30.7N   81.3W                 83                N/A     2/ 3
MAYPORT                    79 81  280/  4/  5 1019.8R
31.4N   80.9W              84 85  270/ 16/ 17 1018.0R   3/ 4   2/10
ST AUGUSTINE               80 77  350/  1/  1 1019.6R

$$
FLZ040-043>046-052-053-057-058-063-144-180300-
INTERIOR CENTRAL FLORIDA
  
CITY           SKY/WX    TMP DP  RH WIND       PRES   REMARKS
OCALA          FAIR      74  71  91 NE3       30.12S                  
LEESBURG       FAIR      76  73  91 CALM      30.12S                  
SANFORD        FAIR      77  73  87 S5        30.11S                  
ORLANDO EXEC   FAIR      78  74  87 CALM      30.12S                  
ORLANDO INTL   MOCLDY    78  72  81 SW3       30.13R                  
KISSIMMEE      FAIR      77  73  87 CALM      30.14R                  
WINTER HAVEN   FAIR      76  72  87 S12       30.16R                  
LAKELAND       PTCLDY    72  72 100 S9        30.15S                  
BARTOW         MOCLDY    73  72  94 SE9       30.14S                  
SEBRING        FAIR      77  72  86 NW15      30.15S                  
OKEECHOBEE     FAIR      79  73  83 CALM      30.12S                  

$$
FLZ041-047-054-059-064-141-147-180300-
EAST CENTRAL FLORIDA
  
CITY           SKY/WX    TMP DP  RH WIND       PRES   REMARKS
DAYTONA BEACH  FAIR      78  76  93 CALM      30.11S                  
DELAND         FAIR      75  73  94 CALM      30.12R                  
NEW SMYRNA BEA PTCLDY    77  72  83 W3        30.12S                  
JFK SPACE CTR  CLEAR     79  66  64 CALM      30.11F                  
CAPE CANAVERAL CLEAR     82  49  31 CALM      30.11                   
PATRICK AFB    PTCLDY    82  73  74 S6        30.10F                  
MELBOURNE      FAIR      84  75  74 S5        30.11S                  
VERO BEACH     FAIR      82  73  74 S5        30.12S                  
FT PIERCE      FAIR      82  72  71 SE6       30.11F                  
STUART         FAIR      81  72  74 CALM      30.13S                  

STATION/POSITION SKY/WX   TEMP    WIND        PRES    WAVE   SWELL
                          AIR SEA DIR/SP/G            HT/PER HT/PER
                          (F)     (DEG/KT/KT) (MB)    (FT/S) (FT/S)
28.5N   80.2W              84 85  170/  8/ 10 1019.7R   1/ 8   2/ 8
28.9N   78.5W              85 86  160/  6/ 10   N/A     2/ 8   2/ 8
TRIDENT PIER               83 85   CALM  /  3 1021.4R
28.4N   80.5W                 83                N/A     1/ 8
27.5N   80.2W                 83                N/A     1/11

$$
FLZ050-056-061-142-242-148-248-149-249-151-251-155-255-
160-260-180300-
WEST CENTRAL FLORIDA
  
CITY           SKY/WX    TMP DP  RH WIND       PRES   REMARKS
CRYSTAL RIVER  FAIR      73  72  94 CALM      30.12R                  
INVERNESS      FAIR      73  73 100 CALM      30.12R                  
BROOKSVILLE    FAIR      72  70  93 S9        30.14R                  
CLEARWATER AIR LGT RAIN  77  72  83 E7        30.14R                  
ST PETE CLEARW LGT RAIN  76  72  87 SE6       30.14R                  
TAMPA INTL     LGT RAIN  78  73  84 SE8       30.14R                  
TAMPA EXEC     LGT RAIN  73  72  94 S8        30.15R                  
PLANT CITY     LGT RAIN N/A N/A N/A MISG      30.17R                  
MACDILL AFB    LGT RAIN  76  72  88 SE13      30.14R                  
PETER O KNIGHT LGT RAIN  77  77 100 SE13      30.15S                  
ST PETERSBURG  LGT RAIN  76  72  87 S16G26    30.13R                  
SARASOTA       TSTM      73  72  96 N8        30.16R FOG              
VENICE         MOCLDY    77  73  88 NE15G24   30.13R                  

STATION/POSITION SKY/WX   TEMP    WIND        PRES    WAVE   SWELL
                          AIR SEA DIR/SP/G            HT/PER HT/PER
                          (F)     (DEG/KT/KT) (MB)    (FT/S) (FT/S)
27.3N   84.2W                 87                N/A     1/ 5
CLEARWATER BEACH           80 89  100/ 13/ 18 1020.5R
MIDDLE TAMPA BAY           80      80/ 18/ 22 1020.6
VENICE                     76 86   30/ 14/ 19 1020.2R

$$
FLZ066-069-070-075>078-162-262-165-265-180300-
SOUTHWEST FLORIDA AND KEYS
  
CITY           SKY/WX    TMP DP  RH WIND       PRES   REMARKS
PUNTA GORDA    FAIR      74  71  91 N9        30.14S                  
FT MYERS       FAIR      79  74  84 CALM      30.10F                  
SOUTHWEST INTL FAIR      78  71  79 NE3       30.10F                  
MARCO ISLAND   LGT RAIN  78  76  93 MISG      30.10F                  
IMMOKALEE      CLOUDY    73  72  94 NE3       30.09F                  
MARATHON       FAIR      86  76  71 NE8       30.08R HX  96           
KEY WEST NAS   FAIR      86  76  71 E10       30.07R HX  96           
KEY WEST INTL  FAIR      84  76  76 E9        30.08R                  

STATION/POSITION SKY/WX   TEMP    WIND        PRES    WAVE   SWELL
                          AIR SEA DIR/SP/G            HT/PER HT/PER
                          (F)     (DEG/KT/KT) (MB)    (FT/S) (FT/S)
NAPLES                     79 89              1019.5
26.0N   85.6W              85 86   60/  8/ 12 1018.6F   2/ 5   2/ 5
DRY TORTUGAS               85      60/ 11/ 12 1018.5R
SAND KEY                   85      90/ 13/ 14 1017.3
SOMBRERO KEY               85      70/ 12/ 14 1018.7
LONG KEY                   85                 1017.9

$$
FLZ067-068-071>074-168-172>174-180300-
SOUTHEAST FLORIDA 
  
CITY           SKY/WX    TMP DP  RH WIND       PRES   REMARKS
W PALM BEACH   FAIR      84  75  74 SE7       30.12S                  
FT LAUDER-EXEC FAIR      84  75  74 SE6       30.11S                  
FT LAUDERDALE  FAIR      85  73  67 SE7       30.10S                  
POMPANO BEACH  FAIR      85  75  72 E5        30.11S                  
PEMBROKE PINES FAIR      85  74  69 E6        30.12S                  
OPA LOCKA      FAIR      84  73  69 E6        30.11S                  
MIAMI          FAIR      85  72  65 E5        30.10F                  
WEST KENDALL   FAIR      82  75  79 E5        30.10S                  
HOMESTEAD      FAIR      83  76  81 NE3       30.09S                  

STATION/POSITION SKY/WX   TEMP    WIND        PRES    WAVE   SWELL
                          AIR SEA DIR/SP/G            HT/PER HT/PER
                          (F)     (DEG/KT/KT) (MB)    (FT/S) (FT/S)
PORT EVERGLADES            85     110/  3/  5 1019.6
VIRGINIA KEY               85 89   70/  4/  5 1019.1R
LAKE WORTH                 84 85  130/  7/  8 1021.1
FOWEY ROCKS                84 85   70/  7/  8 1019.8R
SETTLEMENT POINT           81      40/  3/  4 1020.5R

$$